Regional Weather Roundup
Issued by NWS

Home | Current Version | Previous Version | Text Only | Print | Product List | Glossary On
Versions: 1 2 3 4 5 6 7 8 9 10 11 12 13 14 15 16 17 18 19 20 21 22 23 24 25 26 27 28 29 30 31 32 33 34 35 36 37 38 39 40 41 42 43 44 45 46 47 48 49 50
000
ASUS42 KFFC 231003
RWRGA
WEATHER ROUNDUP FOR GEORGIA
NATIONAL WEATHER SERVICE PEACHTREE CITY GA
600 AM EDT SAT AUG 23 2014

NOTE: "FAIR" INDICATES FEW OR NO CLOUDS BELOW 12,000 FEET WITH NO
SIGNIFICANT WEATHER AND/OR OBSTRUCTIONS TO VISIBILITY.

* = USE WITH CAUTION. THE STATIONS MARKED WITH AN ASTERISK MAY NOT
REPORT WEATHER SUCH AS PRECIPITATION, FOG, OR THUNDER AND ARE NOT
QUALITY CONTROLLED BY NWS.

THE REMARK "TC" DENOTES TEMPERATURE READING IN DEGREES CELSIUS.

GAZ001>058-231100-
NORTH GEORGIA

CITY           SKY/WX    TMP DP  RH WIND       PRES   REMARKS
ATLANTA        PTCLDY    76  70  82 NW5       30.00R
ATHENS         CLEAR     72  69  90 CALM      29.98S
CHAMBLEE       CLEAR     73  69  87 CALM      30.00S
PEACHTREE CITY CLEAR     71  70  96 CALM      30.01R
ROME           CLEAR     71  69  93 CALM      29.99S
WEST ATLANTA   CLEAR     72  70  93 CALM      30.00R
GAINESVILLE    CLEAR     75  70  84 W7        30.02S
CARTERSVILLE   CLEAR     69  68  96 CALM      30.01R


CITY           SKY/WX    TMP DP  RH WIND       PRES   REMARKS
DALTON*        CLEAR     70  70 100 CALM      30.00S
MARIETTA       CLEAR     74  71  92 W6        30.01R
$$

GAZ059>098-102>109-231100-
CENTRAL GEORGIA

CITY           SKY/WX    TMP DP  RH WIND       PRES   REMARKS
AUGUSTA-BUSH   CLEAR     74  70  87 SW3       29.92S
AUGUSTA-DANIEL CLEAR     80  70  71 NW6       29.94S
COLUMBUS       CLEAR     77  74  90 CALM      29.98R
MACON          CLEAR     74  73  97 CALM      29.96S
ROBINS AFB     CLEAR     74  72  93 NW5       29.96S


CITY           SKY/WX    TMP DP  RH WIND       PRES   REMARKS
LAGRANGE*      PTCLDY    75  75  99 CALM      30.00R
SYLVANIA*      CLEAR     74  73  99 CALM      29.94R
$$

GAZ099>101-110>166-231100-
SOUTH GEORGIA

CITY           SKY/WX    TMP DP  RH WIND       PRES   REMARKS
SAVANNAH       CLEAR     78  73  84 W3        29.93S
VALDOSTA       CLEAR     75  71  87 CALM      29.97R
ALMA           CLEAR     74  72  93 CALM      29.95R
ST SIMONS      CLEAR     79  75  87 W7        29.93S
FT STEWART     CLEAR     78  73  86 CALM      29.92S HAZE
ALBANY         CLEAR     75  74  96 CALM      29.99R
HUNTER AFB     CLEAR     77  74  89 NW2       29.91R
MOODY AFB      CLEAR     78  73  85 NW1       29.96R
BRUNSWICK      CLEAR     79  73  83 W3        29.94S


CITY           SKY/WX    TMP DP  RH WIND       PRES   REMARKS
BAINBRIDGE*    CLEAR     79  77  94 CALM      29.98R FOG
MOULTRIE*      CLEAR     77  75  94 CALM      29.98S
VIDALIA*         N/A     79  72  78 CALM      29.96R
WAYCROSS*      CLEAR     79  75  87 CALM      29.95R
DOUGLAS*       CLEAR     77  73  88 CALM      29.97R
$$


USA.gov is the U.S. government's official web portal to all federal, state and local government web resources and services.